Belews Lake Weather Center

Moon Phase Calendar



Belews Lake Water Level
Online Cameras

 


      

Current Conditions in Stokesdale
1/17/2022 4:56:55 PM

35°F
Feels Like 29
Clouds
Humidity
57%
Pressure
29.68"
Wind
8 mph (W)
Dew Point
23°F
UV Index
0/10 (Low)
Visibility
6 mi

Hourly Forecast

Date & Time Mon, Jan 17
4:00 PM
Mon, Jan 17
5:00 PM
Mon, Jan 17
6:00 PM
Mon, Jan 17
7:00 PM
Mon, Jan 17
8:00 PM
Mon, Jan 17
9:00 PM
Mon, Jan 17
10:00 PM
Mon, Jan 17
11:00 PM
Tue, Jan 18
12:00 AM
Tue, Jan 18
1:00 AM
Tue, Jan 18
2:00 AM
Tue, Jan 18
3:00 AM
Tue, Jan 18
4:00 AM
Tue, Jan 18
5:00 AM
Tue, Jan 18
6:00 AM
Tue, Jan 18
7:00 AM
Tue, Jan 18
8:00 AM
Tue, Jan 18
9:00 AM
Tue, Jan 18
10:00 AM
Tue, Jan 18
11:00 AM
Tue, Jan 18
12:00 PM
Tue, Jan 18
1:00 PM
Tue, Jan 18
2:00 PM
Tue, Jan 18
3:00 PM
Tue, Jan 18
4:00 PM
Tue, Jan 18
5:00 PM
Tue, Jan 18
6:00 PM
Tue, Jan 18
7:00 PM
Tue, Jan 18
8:00 PM
Tue, Jan 18
9:00 PM
Tue, Jan 18
10:00 PM
Tue, Jan 18
11:00 PM
Wed, Jan 19
12:00 AM
Wed, Jan 19
1:00 AM
Wed, Jan 19
2:00 AM
Wed, Jan 19
3:00 AM
Wed, Jan 19
4:00 AM
Wed, Jan 19
5:00 AM
Wed, Jan 19
6:00 AM
Wed, Jan 19
7:00 AM
Wed, Jan 19
8:00 AM
Wed, Jan 19
9:00 AM
Wed, Jan 19
10:00 AM
Wed, Jan 19
11:00 AM
Wed, Jan 19
12:00 PM
Wed, Jan 19
1:00 PM
Wed, Jan 19
2:00 PM
Wed, Jan 19
3:00 PM
Condition
Clouds

Clouds

Clouds

Clouds

Clouds

Clouds

Clear

Clear

Clear

Clear

Clouds

Clouds

Clouds

Clouds

Clouds

Clouds

Clear

Clear

Clear

Clear

Clear

Clear

Clear

Clear

Clear

Clouds

Clouds

Clouds

Clouds

Clouds

Clouds

Clouds

Clouds

Clouds

Clouds

Clouds

Clouds

Clouds

Clouds

Clouds

Clouds

Clouds

Clouds

Clouds

Clouds

Clouds

Clouds

Clouds
Temperature 35°F35°F34°F33°F31°F29°F28°F26°F25°F22°F16°F14°F12°F12°F12°F11°F12°F25°F31°F33°F35°F36°F36°F37°F36°F33°F30°F29°F24°F24°F27°F30°F31°F31°F31°F31°F32°F32°F32°F31°F31°F32°F34°F36°F37°F38°F37°F38°F
Feels Like 27°F28°F27°F25°F22°F20°F17°F17°F15°F13°F9°F6°F5°F5°F5°F4°F5°F20°F26°F28°F30°F31°F32°F33°F33°F29°F25°F23°F19°F18°F20°F23°F24°F24°F24°F23°F24°F24°F25°F23°F23°F24°F26°F28°F30°F31°F31°F31°F
Cloudiness 100%100%100%94%47%27%8%7%6%7%19%30%33%35%31%27%5%5%5%5%6%6%10%10%9%16%31%42%100%100%98%98%99%99%100%100%100%100%100%100%100%100%100%99%99%98%100%100%
Visibility 6 mi6 mi6 mi6 mi6 mi6 mi6 mi6 mi6 mi6 mi6 mi6 mi6 mi6 mi6 mi6 mi6 mi6 mi6 mi6 mi6 mi6 mi6 mi6 mi6 mi1 mi1 mi4 mi6 mi3 mi0 mi1 mi6 mi6 mi6 mi6 mi6 mi6 mi6 mi6 mi6 mi6 mi1 mi6 mi6 mi0 mi1 mi1 mi
Precipitation 0%0%0%0%0%0%0%0%0%0%0%0%0%0%0%0%0%0%0%0%0%0%0%0%0%0%0%0%0%0%0%0%0%0%0%0%0%0%0%0%0%0%0%0%0%0%0%0%
Humidity 62%57%63%69%72%76%80%83%84%89%95%96%97%97%96%96%95%87%82%84%85%87%90%95%100%99%99%99%99%99%99%98%96%97%96%97%97%97%97%96%97%97%99%99%100%100%100%100%
Dew Point 24°F23°F24°F25°F24°F24°F22°F21°F20°F18°F14°F12°F10°F10°F10°F9°F10°F21°F26°F29°F30°F32°F34°F35°F36°F33°F30°F28°F24°F23°F26°F29°F30°F30°F30°F30°F31°F31°F31°F30°F29°F31°F34°F35°F37°F37°F37°F37°F
Pressure 29.68"29.68"29.71"29.74"29.8"29.85"29.91"29.94"29.97"30"30.06"30.09"30.09"30.12"30.12"30.15"30.18"30.18"30.21"30.21"30.21"30.18"30.18"30.18"30.18"30.18"30.21"30.24"30.27"30.27"30.24"30.24"30.24"30.21"30.21"30.21"30.21"30.21"30.21"30.21"30.21"30.24"30.21"30.21"30.18"30.15"30.12"30.12"
Wind Speed 10.5 mph10.1 mph8.8 mph9 mph11 mph11.9 mph11.8 mph9.8 mph9.1 mph7 mph4.7 mph4.8 mph4.2 mph4.5 mph4.1 mph3.8 mph4 mph4 mph4.9 mph5.1 mph5.5 mph6 mph5.4 mph4.5 mph4.2 mph4.7 mph5.2 mph5.1 mph4.4 mph4.9 mph6.2 mph6.9 mph7.4 mph7.5 mph8 mph8.2 mph8.8 mph8.5 mph8.2 mph8.5 mph8.8 mph9.6 mph9.8 mph9.8 mph9.9 mph9.8 mph9.8 mph9.4 mph
Wind
Direction
278°
W
275°
W
276°
W
282°
WNW
293°
WNW
296°
WNW
296°
WNW
293°
WNW
299°
WNW
294°
WNW
265°
W
247°
WSW
260°
W
258°
WSW
260°
W
262°
W
259°
W
273°
W
271°
W
270°
W
279°
W
276°
W
273°
W
254°
WSW
223°
SW
211°
SSW
215°
SW
219°
SW
220°
SW
227°
SW
232°
SW
227°
SW
228°
SW
227°
SW
231°
SW
229°
SW
227°
SW
229°
SW
228°
SW
228°
SW
227°
SW
234°
SW
231°
SW
227°
SW
227°
SW
225°
SW
223°
SW
222°
SW

Daily Forecast

Date High Low Precip. Humidity
Today
Jan 17

Clouds
35 °F
23 °F
43%
78%
Tuesday
Jan 18

Clear
37 °F
11 °F
0%
85%
Wednesday
Jan 19

Clouds
38 °F
31 °F
19%
100%
Thursday
Jan 20

Snow
40 °F
24 °F
98%
86%
Friday
Jan 21

Clouds
30 °F
21 °F
0%
72%
Saturday
Jan 22

Snow
28 °F
18 °F
34%
50%
Sunday
Jan 23

Snow
41 °F
24 °F
94%
64%
Monday
Jan 24

Clouds
42 °F
23 °F
5%
78%
Tuesday
Jan 25

Clouds
35 °F
25 °F
18%
50%
Wednesday
Jan 26

Clear
37 °F
24 °F
10%
42%
Thursday
Jan 27

Snow
29 °F
21 °F
62%
74%
Friday
Jan 28

Clouds
33 °F
19 °F
0%
37%
Saturday
Jan 29

Clouds
46 °F
25 °F
0%
62%
Sunday
Jan 30

Clouds
40 °F
26 °F
0%
59%
Monday
Jan 31

Clouds
47 °F
26 °F
0%
55%
Tuesday
Feb 1

Clouds
45 °F
33 °F
19%
69%

Temperature 8-14 Day Outlook



Precipitation 8-14 Day Outlook




Quick Links
Belews Lake News
Belews Lake Photos
Belews Lake Videos




About Us
Contact Us
Site Map
Search Site
Advertise With Us
   
Belews.LakesOnline.com
THE BELEWS LAKE WEBSITE

Copyright 2022, Lakes Online
Privacy    |    Legal